| time (UTC) | temp C | wind direction | speed KPH | gust KPH | rain 1hr cm | rain 24hr cm | rain mn cm | humidity % | barometer mb |
| 20260506174711 | 11 | 60 | 1.6 | 4.8 | 0.00 | 0.08 | 0.00 | 75 | 1023.9 |
| 20260506173710 | 11 | 90 | 0.0 | 0.0 | 0.00 | 0.10 | 0.00 | 73 | 1024.0 |
| 20260506172810 | 11 | 334 | 0.0 | 0.0 | 0.00 | 0.13 | 0.00 | 73 | 1023.9 |
| 20260506171811 | 12 | 157 | 0.0 | 0.0 | 0.00 | 0.15 | 0.00 | 71 | 1023.9 |
| 20260506165910 | 11 | 28 | 0.0 | 4.8 | 0.00 | 0.15 | 0.00 | 74 | 1023.9 |
| 20260506164922 | 11 | 148 | 0.0 | 1.6 | 0.00 | 0.15 | 0.00 | 74 | 1023.9 |
| 20260506163812 | 10 | 163 | 3.2 | 4.8 | 0.00 | 0.15 | 0.00 | 75 | 1023.8 |
| 20260506162910 | 10 | 112 | 3.2 | 6.4 | 0.00 | 0.15 | 0.00 | 76 | 1023.9 |
| 20260506162009 | 10 | 84 | 3.2 | 6.4 | 0.00 | 0.15 | 0.00 | 77 | 1023.9 |
| 20260506160012 | 10 | 360 | 0.0 | 0.0 | 0.00 | 0.15 | 0.00 | 85 | 1023.9 |
| 20260506155025 | 8 | 157 | 0.0 | 0.0 | 0.00 | 0.18 | 0.00 | 95 | 1023.7 |
| 20260506154009 | 7 | 112 | 0.0 | 0.0 | 0.00 | 0.18 | 0.00 | 97 | 1023.7 |
| 20260506153012 | 6 | 112 | 0.0 | 1.6 | 0.00 | 0.18 | 0.00 | 98 | 1023.5 |
| 20260506152111 | 5 | 17 | 0.0 | 0.0 | 0.00 | 0.18 | 0.00 | 97 | 1023.5 |
| 20260506151110 | 3 | 292 | 0.0 | 0.0 | 0.00 | 0.18 | 0.00 | 98 | 1023.1 |
| 20260506150209 | 2 | 292 | 0.0 | 0.0 | 0.00 | 0.18 | 0.00 | 97 | 1022.8 |
| 20260506144210 | 1 | 292 | 0.0 | 0.0 | 0.00 | 0.18 | 0.00 | 97 | 1022.8 |
| 20260506143211 | 1 | 292 | 0.0 | 0.0 | 0.00 | 0.18 | 0.00 | 98 | 1022.8 |
| 20260506142209 | 1 | 292 | 0.0 | 0.0 | 0.00 | 0.18 | 0.00 | 98 | 1022.7 |
| 20260506142128 | 1 | 292 | 0.0 | 0.0 | 0.00 | 0.18 | 0.00 | 98 | 1022.8 |
| 20260506141209 | 1 | 292 | 0.0 | 0.0 | 0.00 | 0.18 | 0.00 | 98 | 1022.5 |
| 20260506140211 | 1 | 292 | 0.0 | 0.0 | 0.00 | 0.18 | 0.00 | 97 | 1022.6 |
| 20260506135212 | 1 | 292 | 0.0 | 0.0 | 0.00 | 0.18 | 0.00 | 97 | 1022.4 |
| 20260506134209 | 1 | 292 | 0.0 | 0.0 | 0.00 | 0.18 | 0.00 | 97 | 1022.4 |
| 20260506132211 | 1 | 292 | 0.0 | 0.0 | 0.00 | 0.18 | 0.00 | 97 | 1022.1 |
| 20260506131212 | 2 | 292 | 0.0 | 0.0 | 0.00 | 0.18 | 0.00 | 97 | 1022.0 |
| 20260506130212 | 2 | 292 | 0.0 | 0.0 | 0.00 | 0.18 | 0.00 | 97 | 1022.1 |
| 20260506125212 | 2 | 292 | 0.0 | 0.0 | 0.00 | 0.18 | 0.00 | 97 | 1021.8 |
| 20260506124210 | 2 | 292 | 0.0 | 0.0 | 0.00 | 0.18 | 0.00 | 96 | 1021.9 |
| 20260506123210 | 2 | 292 | 0.0 | 0.0 | 0.00 | 0.18 | 0.00 | 97 | 1021.8 |
| 20260506122210 | 2 | 292 | 0.0 | 0.0 | 0.00 | 0.20 | 0.00 | 97 | 1021.8 |
| 20260506121309 | 2 | 292 | 0.0 | 0.0 | 0.00 | 0.20 | 0.00 | 97 | 1021.8 |
| 20260506120310 | 2 | 292 | 0.0 | 0.0 | 0.00 | 0.20 | 0.00 | 97 | 1021.8 |
| 20260506115311 | 3 | 292 | 0.0 | 0.0 | 0.00 | 0.20 | 0.00 | 96 | 1021.8 |
| 20260506114328 | 3 | 292 | 0.0 | 0.0 | 0.00 | 0.20 | 0.00 | 97 | 1021.8 |
| 20260506113312 | 3 | 292 | 0.0 | 0.0 | 0.00 | 0.20 | 0.00 | 97 | 1021.8 |
| 20260506112409 | 3 | 292 | 0.0 | 0.0 | 0.00 | 0.20 | 0.00 | 97 | 1021.8 |
| 20260506111412 | 3 | 292 | 0.0 | 0.0 | 0.00 | 0.20 | 0.00 | 96 | 1021.7 |
| 20260506110511 | 3 | 292 | 0.0 | 0.0 | 0.00 | 0.20 | 0.00 | 97 | 1021.7 |
| 20260506104511 | 3 | 292 | 0.0 | 0.0 | 0.00 | 0.20 | 0.00 | 97 | 1021.4 |
| 20260506103609 | 3 | 292 | 0.0 | 0.0 | 0.00 | 0.20 | 0.00 | 96 | 1021.3 |
| 20260506103509 | 3 | 292 | 0.0 | 0.0 | 0.00 | 0.20 | 0.00 | 97 | 1021.3 |
| 20260506102509 | 3 | 292 | 0.0 | 0.0 | 0.00 | 0.20 | 0.00 | 97 | 1021.3 |
| 20260506100511 | 3 | 292 | 0.0 | 0.0 | 0.00 | 0.20 | 0.00 | 97 | 1021.3 |
| 20260506095609 | 3 | 292 | 0.0 | 0.0 | 0.00 | 0.20 | 0.00 | 96 | 1021.2 |
| 20260506092710 | 4 | 292 | 0.0 | 0.0 | 0.00 | 0.20 | 0.00 | 96 | 1021.4 |
| 20260506091711 | 4 | 157 | 0.0 | 0.0 | 0.00 | 0.20 | 0.00 | 96 | 1021.3 |
| 20260506090809 | 4 | 157 | 0.0 | 0.0 | 0.00 | 0.20 | 0.00 | 95 | 1021.4 |
| 20260506085711 | 4 | 157 | 0.0 | 0.0 | 0.00 | 0.20 | 0.00 | 96 | 1021.5 |
| 20260506084711 | 4 | 157 | 0.0 | 0.0 | 0.00 | 0.20 | 0.00 | 96 | 1021.5 |
| 20260506083711 | 4 | 157 | 0.0 | 0.0 | 0.00 | 0.20 | 0.00 | 95 | 1021.6 |
| 20260506082712 | 4 | 157 | 0.0 | 0.0 | 0.00 | 0.20 | 0.00 | 95 | 1021.4 |
| 20260506080811 | 5 | 157 | 0.0 | 0.0 | 0.00 | 0.20 | 0.00 | 95 | 1021.5 |
| 20260506072727 | 5 | 157 | 0.0 | 0.0 | 0.00 | 0.20 | 0.00 | 95 | 1021.4 |
| 20260506071812 | 6 | 157 | 0.0 | 0.0 | 0.00 | 0.20 | 0.00 | 95 | 1021.3 |
| 20260506061816 | 6 | 157 | 0.0 | 0.0 | 0.00 | 0.20 | 0.20 | 93 | 1020.7 |
| 20260506060914 | 6 | 157 | 0.0 | 0.0 | 0.00 | 0.20 | 0.20 | 94 | 1020.8 |
| 20260506050817 | 6 | 157 | 0.0 | 0.0 | 0.00 | 0.20 | 0.20 | 93 | 1020.1 |
| 20260506044815 | 6 | 157 | 0.0 | 0.0 | 0.00 | 0.20 | 0.20 | 92 | 1020.0 |
| 20260506042814 | 6 | 157 | 0.0 | 0.0 | 0.00 | 0.20 | 0.20 | 93 | 1020.0 |
| 20260506041816 | 6 | 157 | 0.0 | 0.0 | 0.00 | 0.20 | 0.20 | 92 | 1019.9 |
| 20260506041730 | 6 | 157 | 0.0 | 0.0 | 0.00 | 0.20 | 0.20 | 91 | 1019.9 |
| 20260506040816 | 6 | 157 | 0.0 | 0.0 | 0.00 | 0.20 | 0.20 | 92 | 1019.8 |
| 20260506033815 | 6 | 157 | 0.0 | 0.0 | 0.00 | 0.20 | 0.20 | 91 | 1019.6 |
| 20260506032816 | 6 | 157 | 0.0 | 0.0 | 0.00 | 0.20 | 0.20 | 90 | 1019.4 |
| 20260506031815 | 7 | 157 | 0.0 | 0.0 | 0.00 | 0.20 | 0.20 | 91 | 1019.1 |
| 20260506030815 | 7 | 157 | 0.0 | 0.0 | 0.00 | 0.20 | 0.20 | 91 | 1018.9 |
| 20260506025816 | 7 | 157 | 0.0 | 0.0 | 0.00 | 0.20 | 0.20 | 91 | 1019.0 |
| 20260506024816 | 7 | 157 | 0.0 | 0.0 | 0.00 | 0.20 | 0.20 | 90 | 1018.9 |
| 20260506023915 | 7 | 157 | 0.0 | 0.0 | 0.00 | 0.20 | 0.20 | 90 | 1018.9 |
| 20260506022916 | 7 | 157 | 0.0 | 0.0 | 0.00 | 0.20 | 0.20 | 90 | 1018.8 |
| 20260506021916 | 7 | 157 | 0.0 | 0.0 | 0.00 | 0.20 | 0.20 | 90 | 1018.6 |
| 20260506020914 | 7 | 157 | 0.0 | 0.0 | 0.00 | 0.20 | 0.20 | 90 | 1018.6 |
| 20260506015915 | 7 | 157 | 0.0 | 0.0 | 0.00 | 0.20 | 0.20 | 90 | 1018.5 |
| 20260506014930 | 7 | 157 | 0.0 | 0.0 | 0.00 | 0.20 | 0.20 | 90 | 1018.2 |
| 20260506013015 | 7 | 180 | 1.6 | 3.2 | 0.00 | 0.20 | 0.20 | 90 | 1018.2 |
| 20260506012030 | 7 | 112 | 0.0 | 3.2 | 0.00 | 0.20 | 0.20 | 92 | 1018.2 |
| 20260506010115 | 7 | 67 | 0.0 | 0.0 | 0.00 | 0.20 | 0.20 | 91 | 1018.1 |
| 20260506010014 | 7 | 67 | 0.0 | 0.0 | 0.00 | 0.20 | 0.20 | 91 | 1018.2 |
| 20260506005015 | 7 | 180 | 0.0 | 0.0 | 0.00 | 0.20 | 0.20 | 91 | 1018.2 |
| 20260506004016 | 6 | 180 | 0.0 | 0.0 | 0.00 | 0.20 | 0.20 | 91 | 1018.1 |
| 20260506003015 | 6 | 179 | 0.0 | 1.6 | 0.00 | 0.20 | 0.20 | 92 | 1018.1 |
| 20260506002015 | 6 | 180 | 0.0 | 0.0 | 0.00 | 0.20 | 0.20 | 92 | 1018.2 |
| 20260505235116 | 6 | 112 | 0.0 | 0.0 | 0.00 | 0.20 | 0.20 | 93 | 1018.3 |
| 20260505234214 | 6 | 112 | 0.0 | 0.0 | 0.00 | 0.20 | 0.20 | 92 | 1018.3 |
| 20260505233230 | 6 | 112 | 0.0 | 0.0 | 0.00 | 0.20 | 0.20 | 92 | 1018.4 |
| 20260505232116 | 6 | 112 | 0.0 | 0.0 | 0.00 | 0.23 | 0.20 | 91 | 1018.6 |
| 20260505231114 | 6 | 112 | 0.0 | 0.0 | 0.00 | 0.23 | 0.20 | 91 | 1018.6 |
| 20260505230115 | 6 | 337 | 0.0 | 1.6 | 0.00 | 0.25 | 0.20 | 92 | 1018.6 |
| 20260505225115 | 6 | 45 | 0.0 | 0.0 | 0.03 | 0.25 | 0.20 | 92 | 1018.6 |
| 20260505224115 | 6 | 45 | 0.0 | 0.0 | 0.03 | 0.25 | 0.20 | 92 | 1018.5 |
| 20260505223214 | 6 | 67 | 0.0 | 0.0 | 0.03 | 0.25 | 0.20 | 93 | 1018.4 |
| 20260505223116 | 6 | 67 | 0.0 | 0.0 | 0.03 | 0.25 | 0.20 | 92 | 1018.4 |
| 20260505222116 | 6 | 112 | 0.0 | 0.0 | 0.05 | 0.25 | 0.20 | 92 | 1018.4 |
| 20260505221116 | 6 | 112 | 0.0 | 0.0 | 0.05 | 0.25 | 0.20 | 93 | 1018.5 |
| 20260505220114 | 6 | 90 | 1.6 | 6.4 | 0.05 | 0.25 | 0.20 | 93 | 1018.6 |
| 20260505215116 | 6 | 39 | 0.0 | 3.2 | 0.03 | 0.25 | 0.18 | 93 | 1018.5 |
| 20260505213115 | 6 | 112 | 0.0 | 0.0 | 0.03 | 0.28 | 0.18 | 91 | 1018.6 |
| 20260505213015 | 6 | 112 | 0.0 | 0.0 | 0.03 | 0.28 | 0.15 | 91 | 1018.6 |
| 20260505212016 | 6 | 112 | 0.0 | 0.0 | 0.00 | 0.25 | 0.15 | 91 | 1018.6 |
| 20260505211014 | 6 | 112 | 1.6 | 1.6 | 0.00 | 0.25 | 0.15 | 90 | 1018.4 |
| 20260505205015 | 7 | 112 | 0.0 | 0.0 | 0.00 | 0.25 | 0.15 | 90 | 1018.3 |
| 20260505204015 | 7 | 112 | 0.0 | 0.0 | 0.00 | 0.25 | 0.15 | 89 | 1018.1 |
| 20260505203114 | 7 | 112 | 0.0 | 0.0 | 0.00 | 0.25 | 0.15 | 90 | 1018.2 |
| 20260505202115 | 7 | 112 | 0.0 | 0.0 | 0.00 | 0.25 | 0.15 | 89 | 1018.2 |
| 20260505202016 | 7 | 112 | 0.0 | 0.0 | 0.00 | 0.25 | 0.15 | 89 | 1018.1 |
| 20260505200913 | 7 | 103 | 3.2 | 4.8 | 0.00 | 0.25 | 0.15 | 89 | 1018.1 |
| 20260505195915 | 7 | 112 | 0.0 | 0.0 | 0.00 | 0.25 | 0.15 | 91 | 1018.1 |
| 20260505194915 | 7 | 112 | 0.0 | 0.0 | 0.00 | 0.25 | 0.15 | 91 | 1018.1 |
| 20260505193916 | 7 | 90 | 0.0 | 0.0 | 0.00 | 0.25 | 0.15 | 90 | 1017.9 |
| 20260505193016 | 7 | 112 | 0.0 | 1.6 | 0.00 | 0.25 | 0.15 | 91 | 1017.9 |
| 20260505192017 | 7 | 90 | 0.0 | 1.6 | 0.00 | 0.25 | 0.15 | 92 | 1017.8 |
| 20260505191931 | 7 | 90 | 0.0 | 0.0 | 0.00 | 0.25 | 0.15 | 91 | 1017.8 |
| 20260505191016 | 7 | 67 | 1.6 | 1.6 | 0.00 | 0.25 | 0.15 | 92 | 1017.8 |
| 20260505190015 | 7 | 90 | 0.0 | 0.0 | 0.00 | 0.25 | 0.15 | 93 | 1017.8 |
| 20260505184116 | 6 | 112 | 0.0 | 0.0 | 0.03 | 0.28 | 0.15 | 94 | 1017.7 |
| 20260505183116 | 6 | 82 | 3.2 | 3.2 | 0.08 | 0.28 | 0.15 | 96 | 1017.5 |
| 20260505182115 | 6 | 112 | 4.8 | 8.0 | 0.10 | 0.28 | 0.15 | 97 | 1017.4 |
| 20260505180116 | 6 | 315 | 0.0 | 0.0 | 0.10 | 0.30 | 0.15 | 97 | 1017.5 |